[[{"header":{"parameterUnit":"m.s-1","parameterCategory":1,"la1":30.2991,"la2":30.254,"lo1":-89.0895,"lo2":-89.0444,"dy":0.0017,"dx":0.0017,"nx":28,"ny":28,"refTime":"2024-05-12T09:00:00:Z","depth":0,"parameterNumber":2,"parameterNumberName":"U-component_of_WINDS"},"data":[0,0,0,0,0,0,0,0,0,0,0,0,0,0,0,0,0,0,0,0,0,0,0,0,0,0,0,0,0,0,0,0,0,0,0,0,0,0,0,0,0,0,0,0,0,0,0,0,0,0,0,0,0,0,0,0,0,0,-0.2369,-0.2371,0,-0.2545,-0.2547,-0.2549,-0.2593,-0.2592,-0.2591,-0.259,-0.2771,-0.2777,-0.2783,0,0,0,0,0,0,0,0,0,0,0,0,0,-0.2075,-0.208,-0.2369,-0.2371,-0.2374,-0.2544,-0.2547,-0.2549,-0.2593,-0.2592,-0.2591,-0.2589,-0.277,-0.2776,-0.2784,0,0,0,0,0,0,0,0,0,0,0,0,0,-0.2222,-0.2082,-0.2369,-0.2416,-0.2422,-0.2544,-0.2547,-0.255,-0.2594,-0.2592,-0.259,-0.2589,-0.2767,-0.2776,-0.2784,-0.2872,0,0,-0.2811,-0.2815,0,0,0,0,0,0,0,0,-0.2213,-0.2232,-0.2407,-0.2413,-0.242,-0.2545,-0.251,-0.2658,-0.2594,-0.2529,-0.259,-0.2588,-0.2698,-0.2712,-0.2749,-0.2881,-0.2888,-0.2812,-0.2818,-0.2821,-0.2824,0,0,0,0,0,0,0,-0.2203,-0.2225,-0.2439,-0.241,-0.2418,-0.2429,-0.2448,-0.2538,-0.262,-0.2534,-0.2538,-0.2558,-0.2701,-0.274,-0.2753,-0.2891,-0.2812,-0.282,-0.2825,-0.2829,-0.3104,-0.3106,0,0,0,0,0,0,-0.2184,-0.2216,-0.2433,-0.2444,-0.231,-0.2436,-0.2457,-0.2507,-0.262,-0.2635,-0.2559,-0.2559,-0.2726,-0.2743,-0.276,-0.287,-0.2821,-0.2829,-0.2835,-0.3102,-0.3105,-0.3107,0,0,0,0,0,0,-0.2178,-0.2203,-0.2426,-0.2331,-0.2361,-0.2443,-0.2498,-0.2511,-0.255,-0.2638,-0.2653,-0.2584,-0.2725,-0.2747,-0.2844,-0.2877,-0.2833,-0.2841,-0.31,-0.3103,-0.3106,-0.3091,0,0,0,0,0,0,-0.2169,-0.2201,-0.2234,-0.2332,-0.2365,-0.2506,-0.25,-0.2516,-0.2565,-0.2567,-0.2666,-0.268,-0.2726,-0.283,-0.2853,-0.2889,-0.2848,-0.3097,-0.3101,-0.3105,-0.3089,-0.3094,-0.3097,0,0,0,0,0,-0.2159,-0.2224,-0.2236,-0.2262,-0.2409,-0.2508,-0.2528,-0.2578,-0.2568,-0.2603,-0.2659,-0.2677,-0.287,-0.284,-0.2865,-0.2904,-0.3096,-0.31,-0.3105,-0.3087,-0.3093,-0.3097,0,0,0,0,0,0,-0.2129,-0.2237,-0.2252,-0.235,-0.242,-0.2516,-0.2561,-0.2582,-0.2656,-0.2655,-0.2715,-0.2737,-0.2829,-0.2877,-0.2841,-0.2995,-0.2983,-0.2993,-0.2961,-0.2967,-0.2971,-0.2957,-0.2856,0,0,0,0,0,-0.2133,-0.2204,-0.2296,-0.2374,-0.2408,-0.2478,-0.2523,-0.2556,-0.263,-0.266,-0.2724,-0.2796,-0.2873,-0.2923,-0.2998,-0.3096,-0.3119,-0.3136,-0.314,-0.3142,-0.315,-0.3206,-0.3215,-0.3122,-0.3122,-0.3122,0,0,-0.2144,-0.2212,-0.2254,-0.2369,-0.2427,-0.25,-0.2503,-0.2579,-0.2634,-0.2672,-0.2767,-0.2816,-0.2901,-0.2998,-0.3045,-0.3041,-0.3181,-0.3148,-0.315,-0.3157,-0.3212,-0.3221,-0.3228,-0.3125,-0.3125,-0.3124,0,0,-0.2201,-0.2259,-0.2331,-0.2388,-0.2475,-0.2522,-0.2539,-0.2632,-0.2666,-0.2762,-0.2792,-0.2858,-0.2989,-0.3049,-0.3096,-0.3175,-0.3195,-0.3198,-0.3219,-0.3273,-0.328,-0.3287,-0.3315,-0.3325,-0.3205,-0.3205,-0.3205,0,-0.2204,-0.2314,-0.2365,-0.2441,-0.2491,-0.2528,-0.2601,-0.2655,-0.2762,-0.2796,-0.279,-0.2956,-0.3015,-0.3127,-0.3146,-0.3183,-0.3205,-0.3187,-0.3275,-0.3282,-0.3289,-0.3317,-0.3327,-0.3205,-0.3205,-0.3205,-0.3205,0,-0.2313,-0.2389,-0.2436,-0.2538,-0.2594,-0.2668,-0.2731,-0.2781,-0.2809,-0.2856,-0.2954,-0.3027,-0.3118,-0.3147,-0.3175,-0.3263,-0.3258,-0.3262,-0.3251,-0.3297,-0.3324,-0.3335,-0.3205,-0.3205,-0.3205,-0.3205,0,0,-0.2356,-0.2485,-0.2502,-0.2549,-0.2647,-0.2707,-0.2783,-0.2872,-0.2914,-0.2986,-0.3052,-0.3162,-0.3167,-0.322,-0.3256,-0.3303,-0.3361,-0.3302,-0.3305,-0.331,-0.3463,-0.3459,-0.3471,-0.3374,-0.3377,-0.3378,-0.3456,0,-0.2425,-0.2561,-0.261,-0.2722,-0.2793,-0.2829,-0.2895,-0.2963,-0.301,-0.3077,-0.3129,-0.3206,-0.3206,-0.3239,-0.3287,-0.3343,-0.3392,-0.3339,-0.3437,-0.3439,-0.3414,-0.3485,-0.3481,-0.3551,-0.3467,-0.3469,-0.347,0,-0.2524,-0.2598,-0.2717,-0.2806,-0.2838,-0.2897,-0.2982,-0.3045,-0.3124,-0.3154,-0.3213,-0.3245,-0.3327,-0.331,-0.3423,-0.3386,-0.3429,-0.3463,-0.3467,-0.3478,-0.3458,-0.3498,-0.3574,-0.3585,-0.3488,-0.3486,-0.3485,0,-0.2544,-0.2673,-0.2761,-0.28,-0.2907,-0.2947,-0.2993,-0.307,-0.312,-0.3194,-0.3228,-0.3311,-0.3356,-0.342,-0.3474,-0.3457,-0.3583,-0.3571,-0.3611,-0.361,-0.3636,-0.3634,-0.372,-0.3663,-0.3663,-0.3663,-0.3663,0,-0.2617,-0.2688,-0.2771,-0.2825,-0.2906,-0.2962,-0.3041,-0.309,-0.3157,-0.3222,-0.3259,-0.3319,-0.3386,-0.3455,-0.3498,-0.3586,-0.3606,-0.3633,-0.3644,-0.363,-0.3627,-0.3659,-0.3656,-0.3666,-0.3665,-0.3665,-0.3664,0,-0.2653,-0.2711,-0.2809,-0.2902,-0.2927,-0.2983,-0.3063,-0.3117,-0.3165,-0.3246,-0.3269,-0.3344,-0.3427,-0.3487,-0.3595,-0.3623,-0.3717,-0.3728,-0.3691,-0.3696,-0.3733,-0.3729,-0.3844,-0.3862,-0.3792,-0.3793,-0.3793,0,-0.2695,-0.2751,-0.2849,-0.2895,-0.2941,-0.3014,-0.3065,-0.3122,-0.3174,-0.3267,-0.331,-0.3396,-0.3467,-0.3599,-0.3663,-0.3746,-0.3759,-0.3793,-0.3772,-0.3756,-0.376,-0.3756,-0.3762,-0.3796,-0.3797,-0.3797,-0.3798,0,-0.2764,-0.279,-0.2862,-0.2944,-0.3004,-0.3072,-0.314,-0.3175,-0.3244,-0.3301,-0.3386,-0.3441,-0.355,-0.3635,-0.3724,-0.3773,-0.3797,-0.3804,-0.3818,-0.3804,-0.3781,-0.3794,-0.37,-0.3801,-0.3801,-0.3801,-0.38,-0.38,-0.2805,-0.2856,-0.2934,-0.3013,-0.307,-0.3132,-0.3188,-0.3242,-0.3314,-0.3407,-0.3436,-0.3524,-0.3602,-0.3723,-0.3773,-0.3844,-0.3842,-0.3862,-0.3867,-0.3871,-0.3871,-0.3769,-0.386,-0.386,-0.386,-0.386,-0.386,0,-0.2876,-0.2928,-0.3,-0.3094,-0.3156,-0.3172,-0.3249,-0.33,-0.3376,-0.3446,-0.3515,-0.3613,-0.3695,-0.3766,-0.3852,-0.3895,-0.3908,-0.3915,-0.3913,-0.3924,-0.3867,-0.3847,-0.3903,-0.3903,-0.3903,-0.3903,-0.3903,-0.3903,-0.2921,-0.3008,-0.3044,-0.316,-0.3211,-0.3297,-0.3339,-0.3398,-0.3454,-0.3561,-0.3629,-0.3674,-0.3745,-0.3836,-0.3912,-0.3931,-0.3961,-0.3966,-0.3987,-0.3933,-0.3928,-0.3923,-0.3904,-0.3972,-0.3972,-0.4038,-0.4039,-0.4039]},{"header":{"parameterUnit":"m.s-1","parameterCategory":1,"la1":30.2991,"la2":30.254,"lo1":-89.0895,"lo2":-89.0444,"dy":0.0017,"dx":0.0017,"nx":28,"ny":28,"refTime":"2024-05-12T09:00:00:Z","depth":0,"parameterNumber":3,"parameterNumberName":"V-component_of_WINDS"},"data":[0,0,0,0,0,0,0,0,0,0,0,0,0,0,0,0,0,0,0,0,0,0,0,0,0,0,0,0,0,0,0,0,0,0,0,0,0,0,0,0,0,0,0,0,0,0,0,0,0,0,0,0,0,0,0,0,0,0,-1.5413,-1.5413,0,-1.5449,-1.545,-1.545,-1.5468,-1.5468,-1.5468,-1.5468,-1.5504,-1.5505,-1.5506,0,0,0,0,0,0,0,0,0,0,0,0,0,-1.5358,-1.5359,-1.5413,-1.5413,-1.5414,-1.5449,-1.545,-1.545,-1.5468,-1.5468,-1.5468,-1.5468,-1.5503,-1.5504,-1.5506,0,0,0,0,0,0,0,0,0,0,0,0,0,-1.5386,-1.5359,-1.5413,-1.5427,-1.5429,-1.5449,-1.545,-1.545,-1.5468,-1.5468,-1.5468,-1.5468,-1.5503,-1.5504,-1.5506,-1.5514,0,0,-1.551,-1.5511,0,0,0,0,0,0,0,0,-1.5385,-1.5388,-1.5425,-1.5426,-1.5428,-1.5454,-1.5443,-1.5471,-1.5468,-1.5453,-1.5468,-1.5468,-1.5487,-1.549,-1.5496,-1.5516,-1.5517,-1.551,-1.5511,-1.5512,-1.5512,0,0,0,0,0,0,0,-1.5383,-1.5387,-1.5427,-1.5425,-1.5427,-1.5431,-1.5435,-1.5449,-1.547,-1.5454,-1.5456,-1.546,-1.5488,-1.5495,-1.5497,-1.5518,-1.551,-1.5511,-1.5512,-1.5513,-1.5544,-1.5544,0,0,0,0,0,0,-1.5379,-1.5385,-1.5426,-1.5428,-1.5406,-1.5432,-1.5437,-1.5446,-1.5469,-1.5473,-1.546,-1.5461,-1.5493,-1.5496,-1.5499,-1.551,-1.5512,-1.5513,-1.5514,-1.5544,-1.5544,-1.5544,0,0,0,0,0,0,-1.5377,-1.5382,-1.5425,-1.5407,-1.5413,-1.5433,-1.5443,-1.5446,-1.5454,-1.5474,-1.5477,-1.5463,-1.5493,-1.5497,-1.551,-1.5511,-1.5514,-1.5515,-1.5544,-1.5544,-1.5544,-1.5531,0,0,0,0,0,0,-1.5376,-1.5382,-1.5385,-1.5407,-1.5414,-1.5436,-1.5443,-1.5447,-1.5456,-1.5457,-1.5478,-1.5481,-1.5493,-1.5508,-1.5511,-1.5513,-1.5516,-1.5544,-1.5544,-1.5544,-1.5532,-1.5531,-1.553,0,0,0,0,0,-1.5374,-1.538,-1.5386,-1.539,-1.5419,-1.5436,-1.544,-1.5454,-1.5456,-1.546,-1.5472,-1.5481,-1.551,-1.5509,-1.5513,-1.5515,-1.5544,-1.5544,-1.5544,-1.5532,-1.5531,-1.553,0,0,0,0,0,0,-1.5358,-1.5383,-1.539,-1.5403,-1.5417,-1.5439,-1.5444,-1.5452,-1.5465,-1.5466,-1.5482,-1.5487,-1.5498,-1.5508,-1.5506,-1.5524,-1.5528,-1.5529,-1.5517,-1.5516,-1.5515,-1.5513,-1.5517,0,0,0,0,0,-1.5356,-1.5368,-1.5389,-1.5399,-1.5406,-1.5424,-1.5432,-1.5441,-1.5456,-1.5462,-1.5476,-1.5489,-1.5502,-1.551,-1.5522,-1.5533,-1.5537,-1.5536,-1.5535,-1.5535,-1.5535,-1.5541,-1.5541,-1.5544,-1.5544,-1.5544,0,0,-1.5352,-1.5368,-1.5374,-1.5397,-1.5409,-1.542,-1.5429,-1.5441,-1.5449,-1.5464,-1.5477,-1.5487,-1.5504,-1.5515,-1.5521,-1.5524,-1.5535,-1.5535,-1.5534,-1.5535,-1.5541,-1.5541,-1.554,-1.5544,-1.5544,-1.5544,0,0,-1.5351,-1.5364,-1.5374,-1.5385,-1.5403,-1.5415,-1.5417,-1.5437,-1.5445,-1.5459,-1.547,-1.548,-1.5501,-1.5512,-1.552,-1.5522,-1.553,-1.5526,-1.5521,-1.5527,-1.5527,-1.5526,-1.5527,-1.5527,-1.5526,-1.5526,-1.5526,0,-1.5344,-1.5362,-1.5377,-1.5389,-1.5398,-1.5412,-1.5421,-1.5432,-1.5453,-1.5458,-1.5461,-1.5487,-1.5499,-1.5514,-1.5514,-1.552,-1.5523,-1.5524,-1.5525,-1.5525,-1.5525,-1.5526,-1.5526,-1.5525,-1.5525,-1.5526,-1.5526,0,-1.5352,-1.5365,-1.537,-1.539,-1.54,-1.541,-1.5426,-1.5434,-1.5443,-1.5454,-1.5467,-1.5482,-1.5497,-1.5501,-1.5509,-1.5516,-1.5517,-1.5522,-1.5527,-1.5524,-1.5525,-1.5525,-1.5524,-1.5525,-1.5525,-1.5525,0,0,-1.5343,-1.5371,-1.5373,-1.5382,-1.5402,-1.5412,-1.5422,-1.5438,-1.5444,-1.5457,-1.5466,-1.5483,-1.5488,-1.5497,-1.5507,-1.5512,-1.5512,-1.5516,-1.5517,-1.5515,-1.552,-1.5515,-1.5516,-1.5517,-1.5517,-1.5517,-1.5518,0,-1.5345,-1.5365,-1.5378,-1.5393,-1.5404,-1.5417,-1.5426,-1.5439,-1.5449,-1.5459,-1.547,-1.5482,-1.5488,-1.5493,-1.5499,-1.5511,-1.5513,-1.5511,-1.5524,-1.5525,-1.552,-1.5516,-1.5512,-1.5512,-1.5518,-1.5519,-1.5519,0,-1.535,-1.5363,-1.5379,-1.5397,-1.5403,-1.541,-1.5425,-1.5435,-1.545,-1.5457,-1.5467,-1.5477,-1.5487,-1.5491,-1.5505,-1.5503,-1.5509,-1.5516,-1.5516,-1.5518,-1.5522,-1.5517,-1.5513,-1.5513,-1.5519,-1.5519,-1.5519,0,-1.5341,-1.5363,-1.5375,-1.5382,-1.5404,-1.541,-1.5419,-1.5434,-1.5442,-1.5454,-1.546,-1.5473,-1.5481,-1.549,-1.5503,-1.5504,-1.5516,-1.552,-1.5521,-1.5521,-1.5524,-1.5523,-1.552,-1.5528,-1.5528,-1.5528,-1.5528,0,-1.5342,-1.5351,-1.5371,-1.5379,-1.5389,-1.5404,-1.5413,-1.5423,-1.5436,-1.5445,-1.5457,-1.5465,-1.5481,-1.5491,-1.55,-1.551,-1.5514,-1.5519,-1.5522,-1.5518,-1.5517,-1.5523,-1.5523,-1.5528,-1.5528,-1.5528,-1.5528,0,-1.5334,-1.5348,-1.5362,-1.5382,-1.5387,-1.5393,-1.541,-1.5417,-1.5427,-1.5439,-1.5442,-1.5458,-1.547,-1.5484,-1.55,-1.5507,-1.5516,-1.552,-1.5511,-1.5513,-1.5513,-1.5513,-1.5513,-1.5513,-1.5521,-1.5521,-1.5521,0,-1.5333,-1.5341,-1.5361,-1.5368,-1.5377,-1.5388,-1.5397,-1.5411,-1.5419,-1.5436,-1.5441,-1.5454,-1.5465,-1.5483,-1.5496,-1.5508,-1.5512,-1.5512,-1.5514,-1.551,-1.5512,-1.5511,-1.5512,-1.5511,-1.5511,-1.551,-1.551,0,-1.5331,-1.5337,-1.5349,-1.5363,-1.5373,-1.5385,-1.5397,-1.5402,-1.5418,-1.5427,-1.5439,-1.5448,-1.5465,-1.5477,-1.5491,-1.55,-1.5507,-1.5509,-1.551,-1.5507,-1.5501,-1.5504,-1.5509,-1.5509,-1.5509,-1.5509,-1.551,-1.551,-1.5327,-1.5333,-1.5349,-1.5361,-1.5372,-1.5382,-1.539,-1.5401,-1.5412,-1.5427,-1.5435,-1.5447,-1.5461,-1.548,-1.5489,-1.5498,-1.55,-1.5502,-1.5502,-1.5502,-1.5501,-1.55,-1.55,-1.55,-1.55,-1.55,-1.5501,0,-1.5325,-1.5335,-1.5346,-1.5363,-1.5372,-1.5379,-1.5393,-1.54,-1.5411,-1.5423,-1.5434,-1.5448,-1.5459,-1.5473,-1.5486,-1.549,-1.5494,-1.5493,-1.5493,-1.5494,-1.5498,-1.5496,-1.549,-1.549,-1.549,-1.549,-1.549,-1.549,-1.5325,-1.5336,-1.5344,-1.5361,-1.5371,-1.5383,-1.539,-1.54,-1.541,-1.5425,-1.5435,-1.5444,-1.5456,-1.547,-1.548,-1.5484,-1.5488,-1.5486,-1.549,-1.5493,-1.5494,-1.5495,-1.5493,-1.5486,-1.5486,-1.5486,-1.5486,-1.5486]}]]